Location: ?????????
(41.2393°N, 22.9479°E)
Time: 22:51:36
(UTC+00:00)

Cosmos 1140 Rocket - Pass Details

Date: 17 November 2025
Orbit: 740 x 761 km, 74.1° (Epoch: 09 December)

Event Time Altitude Azimuth Distance (km) Brightness Sun altitude
Rises 15:51:41 0° 212° (SSW) 3,198 7.6 -8.6°
Reaches altitude 10° 15:54:07 10° 217° (SW) 2,274 6.9 -9.0°
Maximum altitude 15:59:07 51° 293° (WNW) 943 4.3 -9.9°
Drops below altitude 10° 16:04:09 10° 10° (N) 2,275 5.7 -10.8°
Sets 16:06:35 0° 15° (NNE) 3,200 6.4 -11.3°
